Hourly Data Report for July 04, 2017

QUALICUM BEACH AIRPORT
BRITISH COLUMBIA

49°20'14.000" N
124°23'38.000" W
58.20 m
1026562
71766
VOQ

Download Data

Hourly Data (July 2017)
Hourly Data Report for July 4, 2017
TIME
LST
Temp Definition
°C
Dew Point Definition
°C
Rel Hum Definition
%
Precip. Amount Definition
mm

Wind Dir Definition
10's deg

Wind Spd Definition
km/h
Visibility Definition
km
Stn Press Definition
kPa
Hmdx Definition


Wind Chill Definition


Weather Definition


00:00 13.2 9.6 79 0.0 28 5   101.24     LegendNANA
01:00 12.0 9.1 82 0.0 26 2   101.23     LegendNANA
02:00 12.0 8.6 80 0.0 28 4   101.24     LegendNANA
03:00 12.1 8.0 76 0.0 27 7   101.21     LegendNANA
04:00 12.2 7.5 73 0.0 28 8   101.22     LegendNANA
05:00 12.2 7.4 73 0.0 26 5   101.22     LegendNANA
06:00 14.0 8.0 67 0.0 28 4   101.23     LegendNANA
07:00 14.9 8.2 64 0.0 33 10   101.23     LegendNANA
08:00 15.6 8.6 63 0.0 32 10   101.22     LegendNANA
09:00 16.0 9.2 64 0.0 32 11   101.21     LegendNANA
10:00 17.1 10.0 63 0.0 32 9   101.15     LegendNANA
11:00 18.3 10.6 61 0.0 33 13   101.13     LegendNANA
12:00 19.4 9.8 54 0.0 3 7   101.09     LegendNANA
13:00 19.5 9.0 51 0.0 2 7   101.03     LegendNANA
14:00 21.2 7.7 42 0.0 36 8   100.97     LegendNANA
15:00 22.6 9.0 42 0.0 2 6   100.92     LegendNANA
16:00 23.4 7.5 36 0.0 3 6   100.87     LegendNANA
17:00 22.3 10.5 47 0.0 3 8   100.83     LegendNANA
18:00 22.3 10.0 46 0.0 2 5   100.80     LegendNANA
19:00 20.9 10.5 51 0.0 4 5   100.80     LegendNANA
20:00 19.1 11.6 61 0.0 30 2   100.80     LegendNANA
21:00 16.3 11.2 72 0.0 23 2   100.82     LegendNANA
22:00 15.8 10.6 72 0.0 26 2   100.81     LegendNANA
23:00 14.5 11.2 81 0.0 26 3   100.80     LegendNANA

Notes on Data Quality.

Legend

  • E = Estimated
  • M = Missing
  • NA = Not Available*
  • [empty] = Indicates an unobserved value
Date modified: